Regional Weather Roundup
Issued by NWS

Home | Current Version | Previous Version | Text Only | Print | Product List | Glossary On
Versions: 1 2 3 4 5 6 7 8 9 10 11 12 13 14 15 16 17 18 19 20 21 22 23 24 25 26 27 28
000
ASPQ40 PGUM 281212
RWRPQ
WEATHER ROUNDUP FOR THE MARIANAS AND MICRONESIA
NATIONAL WEATHER SERVICE TIYAN GU
1000 PM CHST WED JUN 28 2017

GUZ001>004-281300-
MARIANA ISLANDS-

CITY           SKY/WX    TMP DP  RH WIND       PRES   REMARKS
GUAM AIRPORT   CLEAR     82  79  89 E8        29.92S HX  93
ANDERSEN AFB   CLEAR     79  77  94 E13       29.93S
ROTA AIRPORT   NOT AVBL
TINIAN AP      NOT AVBL
SAIPAN AP      MOCLDY    84  77  79 E12       29.92R HX  94

$$

PMZ161-281300-
REPUBLIC OF PALAU-

CITY           SKY/WX    TMP DP  RH WIND       PRES   REMARKS
KOROR AP       MOCLDY    75  73  94 NE3       29.85R
KOROR WSO      MOCLDY    79  79 100 S5        29.86R

$$

PMZ171>174-281300-
FEDERATED STATES OF MICRONESIA-

CITY           SKY/WX    TMP DP  RH WIND       PRES   REMARKS
YAP AIRPORT    CLOUDY    82  79  89 VRB5      29.83R HX  93
CHUUK AP       CLOUDY    81  77  89 VRB5      29.86R
POHNPEI AP     CLOUDY    79  75  89 NE3       29.86S
POHNPEI WSO    CLOUDY    75  75 100 SE3       29.89S
KOSRAE AP      NOT AVBL

$$

PMZ181-281300-
REPUBLIC OF THE MARSHALL ISLANDS-

CITY           SKY/WX    TMP DP  RH WIND       PRES   REMARKS
KWAJALEIN AP   PTCLDY    82  77  83 E15       29.86S HX  91
MAJURO AP      NOT AVBL
MAJURO WSO     MOCLDY    79  73  83 CALM      29.85S

$$





USA.gov is the U.S. government's official web portal to all federal, state and local government web resources and services.